Poplar Bluff, MO

4:53 PM CDT on July 20, 2019 (GMT -0500)
Poplar Bluff Municipal

Weather History for KPOF - May, 2019

Change the Weather History Date:

Sunday, May 19, 2019

  Actual Average Record
Temperature  
Mean Temperature 72 °F -  
Max Temperature 82 °F 81 °F 96 °F (1941)
Min Temperature 62 °F 58 °F 42 °F (2002)
Cooling Degree Days 7    
Growing Degree Days 22 (Base 50)    
Moisture  
Dew Point 64 °F    
Average Humidity 88    
Maximum Humidity 100    
Minimum Humidity 47    
Precipitation  
Precipitation 0.74 in - - ()
Sea Level Pressure  
Sea Level Pressure 29.80 in    
Wind  
Wind Speed 9 mph (SSW)    
Max Wind Speed 18 mph    
Max Gust Speed 29 mph    
Visibility 8 miles    
Events Rain    
Averages and records for this station are not official NWS values.
T = Trace of Precipitation, MM = Missing Value Source: NWS Daily Summary

Daily Weather History Graph

Daily Weather History Graph

Search for Another Location

Airport or City:

Astronomy

May. 19, 2019 Rise Set
Actual Time 5:50 AM CDT 8:05 PM CDT
Civil Twilight 5:21 AM CDT 8:34 PM CDT
Nautical Twilight 4:45 AM CDT 9:10 PM CDT
Astronomical Twilight 4:07 AM CDT 9:49 PM CDT
Moon 9:05 PM CDT (5/19) 6:35 AM CDT (5/19)
Length of Visible Light 15h 12m
Length of Day
14h 14m
Full, 99% of the Moon is Illuminated
May 19
Full
May 26
Last Quarter
Jun 3
New
Jun 10
First Quarter
Jun 17
Full

Hourly Weather History & Observations

Time (CDT) Temp. Heat Index Dew Point Humidity Pressure Visibility Wind Dir Wind Speed Gust Speed Precip Events Conditions
12:53 AM 64.9 °F - 64.0 °F 97% 29.72 in 10.0 mi SE 8.1 mph - 0.00 in   Clear
1:53 AM 64.9 °F - 64.0 °F 97% 29.75 in 10.0 mi SSW 8.1 mph - 0.00 in Rain Light Rain
2:53 AM 64.9 °F - 64.0 °F 97% 29.73 in 10.0 mi South 8.1 mph - 0.00 in   Overcast
3:50 AM 64.4 °F - 64.4 °F 100% 29.79 in 8.0 mi WSW 8.1 mph - 0.00 in Rain Light Rain
3:53 AM 64.9 °F - 64.0 °F 97% 29.78 in 8.0 mi WSW 5.8 mph - 0.01 in Rain Light Rain
4:13 AM 64.9 °F - 64.9 °F 100% 29.78 in 4.0 mi SSW 4.6 mph - 0.03 in Rain Light Rain
4:53 AM 64.9 °F - 64.9 °F 100% 29.77 in 3.0 mi SSW 6.9 mph - 0.19 in Rain Rain
5:37 AM 64.9 °F - 64.9 °F 100% 29.78 in 2.5 mi SSE 9.2 mph - 0.26 in Rain Heavy Rain
5:49 AM 64.4 °F - 64.4 °F 100% 29.79 in 3.0 mi South 12.7 mph - 0.34 in Rain Rain
5:50 AM 64.4 °F - 64.4 °F 100% 29.79 in 2.5 mi South 13.8 mph - 0.34 in Rain Rain
5:53 AM 64.9 °F - 64.9 °F 100% 29.78 in 2.5 mi South 12.7 mph 23.0 mph 0.37 in Rain Heavy Rain
6:09 AM 64.9 °F - 64.9 °F 100% 29.77 in 3.0 mi SSE 16.1 mph 24.2 mph 0.09 in Rain Rain
6:19 AM 64.9 °F - 64.9 °F 100% 29.77 in 5.0 mi South 12.7 mph 24.2 mph 0.11 in Rain Light Rain
6:53 AM 64.9 °F - 64.9 °F 100% 29.76 in 10.0 mi SSE 8.1 mph - 0.11 in   Overcast
7:02 AM 64.9 °F - 64.9 °F 100% 29.79 in 10.0 mi SW 5.8 mph - N/A   Overcast
7:22 AM 64.9 °F - 64.9 °F 100% 29.80 in 1.8 mi SW 8.1 mph - 0.01 in Rain Rain
7:32 AM 64.9 °F - 64.9 °F 100% 29.79 in 4.0 mi South 6.9 mph - 0.05 in Rain Light Rain
7:53 AM 66.0 °F - 64.9 °F 96% 29.78 in 5.0 mi South 9.2 mph - 0.06 in Rain Light Rain
8:03 AM 66.0 °F - 66.0 °F 100% 29.80 in 10.0 mi South 10.4 mph - 0.00 in   Overcast
8:26 AM 66.0 °F - 64.9 °F 96% 29.79 in 10.0 mi South 10.4 mph - 0.00 in   Overcast
8:53 AM 66.9 °F - 66.0 °F 97% 29.77 in 10.0 mi South 10.4 mph - 0.00 in   Overcast
9:30 AM 66.9 °F - 66.0 °F 97% 29.78 in 10.0 mi South 9.2 mph - N/A   Overcast
9:53 AM 68.0 °F - 66.0 °F 93% 29.78 in 10.0 mi South 6.9 mph - N/A   Overcast
10:53 AM 70.0 °F - 66.9 °F 90% 29.79 in 10.0 mi SSW 11.5 mph - N/A   Overcast
11:25 AM 72.0 °F - 68.0 °F 87% 29.80 in 10.0 mi SW 12.7 mph 21.9 mph N/A   Overcast
11:34 AM 71.1 °F - 68.0 °F 90% 29.81 in 10.0 mi SSW 18.4 mph 26.5 mph N/A   Overcast
11:51 AM 73.4 °F - 68.0 °F 83% 29.81 in 10.0 mi SW 15.0 mph 25.3 mph N/A   Overcast
11:53 AM 72.0 °F - 68.0 °F 87% 29.81 in 10.0 mi SW 15.0 mph 25.3 mph N/A   Overcast
12:24 PM 75.0 °F - 68.0 °F 79% 29.81 in 10.0 mi SW 15.0 mph 26.5 mph N/A   Mostly Cloudy
12:53 PM 77.0 °F - 68.0 °F 74% 29.80 in 10.0 mi SW 13.8 mph 28.8 mph N/A   Scattered Clouds
1:53 PM 79.0 °F - 66.9 °F 66% 29.79 in 10.0 mi SW 17.3 mph 25.3 mph N/A   Partly Cloudy
2:53 PM 80.1 °F 82.1 °F 66.0 °F 62% 29.79 in 10.0 mi SW 16.1 mph 28.8 mph N/A   Partly Cloudy
3:53 PM 80.1 °F 82.3 °F 66.9 °F 64% 29.80 in 10.0 mi SW 15.0 mph 24.2 mph N/A   Partly Cloudy
4:53 PM 78.1 °F - 61.0 °F 56% 29.81 in 10.0 mi WSW 10.4 mph 21.9 mph N/A   Partly Cloudy
5:53 PM 79.0 °F - 57.0 °F 47% 29.83 in 10.0 mi West 8.1 mph - N/A   Clear
6:53 PM 77.0 °F - 57.0 °F 50% 29.85 in 10.0 mi WNW 8.1 mph - N/A   Clear
7:53 PM 73.0 °F - 57.0 °F 57% 29.87 in 10.0 mi West 4.6 mph - N/A   Clear
8:53 PM 70.0 °F - 57.9 °F 65% 29.90 in 10.0 mi West 4.6 mph - N/A   Clear
9:53 PM 66.0 °F - 62.1 °F 87% 29.93 in 10.0 mi Calm Calm - N/A   Clear
10:53 PM 64.0 °F - 61.0 °F 90% 29.94 in 10.0 mi Calm Calm - N/A   Clear
11:53 PM 62.1 °F - 61.0 °F 96% 29.95 in 10.0 mi Calm Calm - N/A   Clear